Tracking 28790 objects as of 19-Apr-2024
HD Live streaming from Space Station
objects crossing your sky now

PSLV R/B

Track PSLV R/B now!
10-day predictions


NORAD ID: 41242
Int'l Code: 2016-003B
Perigee: 328.9 km
Apogee: 20,567.5 km
Inclination: 19.3 °
Period: 361.8 minutes
Semi major axis: 16819 km
RCS: Unknown
Launch date: January 20, 2016
Source: India (IND)
Launch site: SRIHARIKOTA (SRI)

Note: This is a ROCKET BODY
Your satellite tracking list
Your tracking list is empty




NASA's NSSDC Master Catalog

Two Line Element Set (TLE):
1 41242U 16003B   24109.08591455  .00007723  00000-0  30104-2 0  9995
2 41242  19.2716 336.7917 6016536  80.3618 338.9376  3.98010999118962
Source of the keplerian elements: AFSPC